Погода в Поддубье

Россия / Псковская область     56°26′38″N   29°19′32″E
темп.,
°C
ветер,
м/с
пор.,
м/с
влажн.,
%
обл.,
%
осадки,
мм/ч
давл.,
гПа
погр.,
м
7 марта, вс
вс700:00−1зюз71570100 0.6 10061228
03:00−1зюз81693100 1.0 10001231
06:00−1зюз81695100 2.2 9971311
09:00−4зсз41268100 4.1 9971793
12:00−2з6135097 0.0 9962131
15:00−2зсз8155397 1.3 9962600
18:00−4зсз61470100 0.1 9971834
21:00−5з61292100 0.4 9981172
8 марта, пн
пн800:00−5зсз61193100 0.9 9991010
03:00−5с3690100 1.7 1001576
06:00−9сз5128856 0.0 1003674
09:00−8ссз598877 0.2 10071013
12:00−7ссз5780100 0.2 1009916
15:00−6ссз5877100 0.3 1011907
18:00−7ссз4781100 0.1 1013830
21:00−9сз389399 0.1 1015292
9 марта, вт
вт900:00−10ссз2795100 0.0 1017279
03:00−13ссз239768 0.0 101885
06:00−14ссз249757 0.0 1019104
09:00−13ссз249262 0.0 1021260
12:00−8сз236751 0.0 1021615
15:00−6зсз236055 0.0 1022883
18:00−6зюз1472100 0.0 1020354
21:00−8ююз3880100 0.0 1020249
10 марта, ср
ср1000:00−7юз31179100 0.0 1018456
03:00−6юз41181100 0.1 1017620
06:00−6зюз3995100 1.5 1016593
09:00−4зюз2594100 2.9 1017314
12:00−1з1184100 0.3 1018498
15:000вюв117794 1.0 1018730
18:00−4в3593100 1.3 1018325
21:00−7в379595 1.5 1018219
11 марта, чт
чт1100:00−8вюв359597 0.1 1018215
03:00−10вюв239799 0.2 101783
06:00−11вюв2498100 0.0 101596
09:00−8юв3693100 0.1 1014202
12:00−2ююв4883100 0.0 1012499
15:00−6юв5986100 0.0 1014425
18:00−3ююв51281100 0.0 1010800
21:00−3ююв61572100 0.0 1006826